This is the latest recevied weather packets stored in our database for station/object KD4IZ-13. If no packets are shown the sender has not sent any weather packets the latest 10 day(s).
| Time | Temp. | Humidity | Pressure | Rain* | Wind** | Luminosity | Snow |
|---|---|---|---|---|---|---|---|
| 1777758474 | 12.22° C | 52% | 1013.5 hPa | 0 mm | - | 79 W/m² | - |
| 1777758171 | 12.22° C | 52% | 1013.6 hPa | 0 mm | - | 95 W/m² | - |
| 1777757868 | 12.78° C | 51% | 1013.6 hPa | 0 mm | - | 94 W/m² | - |
| 1777757566 | 12.78° C | 50% | 1013.8 hPa | 0 mm | - | 120 W/m² | - |
| 1777757264 | 13.33° C | 51% | 1013.5 hPa | 0 mm | - | 177 W/m² | - |
| 1777756962 | 13.33° C | 50% | 1013.5 hPa | 0 mm | - | 179 W/m² | - |
| 1777756658 | 13.33° C | 50% | 1013.5 hPa | 0 mm | - | 216 W/m² | - |
| 1777756355 | 12.78° C | 51% | 1013.4 hPa | 0 mm | - | 182 W/m² | - |
| 1777756052 | 13.33° C | 49% | 1013.1 hPa | 0 mm | - | 189 W/m² | - |
| 1777755749 | 12.78° C | 51% | 1013.4 hPa | 0 mm | - | 436 W/m² | - |
| 1777755447 | 12.78° C | 51% | 1013.4 hPa | 0 mm | - | 160 W/m² | - |
| 1777755142 | 12.78° C | 53% | 1013.2 hPa | 0 mm | - | 150 W/m² | - |
| 1777754840 | 13.89° C | 51% | 1013.1 hPa | 0 mm | - | 181 W/m² | - |
| 1777754537 | 13.33° C | 53% | 1013 hPa | 0 mm | - | 298 W/m² | - |
| 1777754235 | 12.78° C | 51% | 1012.9 hPa | 0 mm | - | 196 W/m² | - |
| 1777753932 | 13.33° C | 48% | 1013 hPa | 0 mm | - | 190 W/m² | - |
| 1777753626 | 13.89° C | 48% | 1013.1 hPa | 0 mm | - | 250 W/m² | - |
| 1777753325 | 13.33° C | 51% | 1013.4 hPa | 0 mm | - | 567 W/m² | - |
| 1777753022 | 12.78° C | 51% | 1013.2 hPa | 0 mm | - | 246 W/m² | - |
| 1777752719 | 13.33° C | 51% | 1013.6 hPa | 0 mm | - | 281 W/m² | - |
| 1777752414 | 12.78° C | 49% | 1013.2 hPa | 0 mm | - | 196 W/m² | - |
| 1777752111 | 13.89° C | 48% | 1013.4 hPa | 0 mm | - | 267 W/m² | - |
| 1777751809 | 13.33° C | 51% | 1013 hPa | 0 mm | - | 260 W/m² | - |
| 1777751505 | 13.33° C | 48% | 1013.6 hPa | 0 mm | - | 185 W/m² | - |
| 1777751202 | 13.33° C | 49% | 1013.5 hPa | 0 mm | - | 218 W/m² | - |
* Rain latest hour (hover to see other rain measurements)
** Current wind speed in m/s (hover to see current wind gust speed)